If you wish to contribute or participate in the discussions about articles you are invited to join SKYbrary as a registered user

Granada

From SKYbrary Wiki
LEGR
Airport
ICAO: LEGR
Summary
Name Granada
Region Europe
Territory Spain ES.gif
Location Granada, Spain
Serving
Coordinates 37° 11' 18", -3° 46' 36"
Runways
Designator Length Width Surface ROPS
9/27 2900 m9,514.436 ft 45 m147.638 ft ASP yes/yes
METAR
Observation LEGR 180400Z AUTO 00000KT 9999 NCD 02/01 Q1020
Station Granada / Aeropuerto
Date/Time 18 November 2017 04:00:00
Wind direction
Wind speed 00 kts
Lowest cloud amount no clouds detected
Temperature 2°C
Dew point 1°C
Humidity 93%
QNH 1020 hPa
Weather condition n/a

WX
Tag(s) Fog

Granada Airport

ICAO: LEGR IATA: GRX

Description

International airport serving Spanish city of Granada.

Climatology

Dry-summer subtropical ”Mediterranean" climate (Köppen climate classification Csa) - characterized by hot, dry summers and mild winters. During the summer, subtropical high pressure cells dominate, making rainfall unlikely except for the occasional thunderstorm. In the winter, periodic storms bring rain (snow at higher elevations).

Maps

Terrain

Loading map...

Airport Layout

Loading map...


Accidents & Serious Incidents at or in vicinity of LEGR

None on SKYbrary